Regional Weather Roundup
Issued by NWS

Home | Current Version | Previous Version | Text Only | Print | Product List | Glossary Off
Versions: 1 2 3 4 5 6 7 8 9 10 11 12 13 14 15 16 17 18 19 20 21 22 23 24 25 26 27 28 29 30 31 32 33 34 35 36 37 38 39 40 41 42 43 44 45 46 47 48 49 50

000
ASUS43 KMKX 240600
RWRWI

WISCONSIN REGIONAL WEATHER ROUNDUP
NATIONAL WEATHER SERVICE MILWAUKEE/SULLIVAN WI
100 AM CDT THU MAY 24 2018

NOTE: "FAIR" INDICATES FEW OR NO CLOUDS BELOW 12,000 FEET WITH NO
SIGNIFICANT WEATHER AND/OR OBSTRUCTIONS TO VISIBILITY.

WIZ001-002-006>008-014>016-023>028-240700-
NORTHWEST WISCONSIN

CITY           SKY/WX    TMP DP  RH WIND       PRES   REMARKS
SUPERIOR ARPT  MOCLDY    50  46  84 NE6       30.08S
ASHLAND        FAIR      53  53 100 CALM      30.09F
6HR MIN TEMP:  52; 6HR MAX TEMP:  68;

HAYWARD        MOCLDY    63  60  90 CALM      30.10F
6HR MIN TEMP:  62; 6HR MAX TEMP:  78;

SIREN          FAIR      69  60  73 S6        30.08S
CUMBERLAND     CLOUDY    68  59  73 SE5       30.10S
RICE LAKE      FAIR      68  61  79 SE5       30.11F
CHETEK         FAIR      67  62  86 CALM      30.10F
LADYSMITH      FAIR      65  59  81 CALM      30.14F
EAU CLAIRE     NOT AVBL
MENOMONIE      FAIR      67  62  83 E3        30.09F
NEW RICHMOND   NOT AVBL
OSCEOLA        FAIR      70  62  76 SE6       30.09F
$$

WIZ003>005-009-010-017-018-240700-
NORTH CENTRAL WISCONSIN

CITY           SKY/WX    TMP DP  RH WIND       PRES   REMARKS
MANITOWISH WTR FAIR      55  55 100 CALM      30.15S
ARBOR VITAE    FAIR      59  57  92 CALM      30.15S
WOODRUFF       FAIR      59  57  92 CALM      30.15S
RHINELANDER    FAIR      62  60  93 CALM      30.17S
6HR MIN TEMP:  60; 6HR MAX TEMP:  79;

EAGLE RIVER    FAIR      59  55  85 CALM      30.15S
LAND O LAKES   FAIR      55  54  95 CALM      30.18R
PHILLIPS       FAIR      63  61  92 CALM      30.14S
TOMAHAWK       FAIR      59  56  92 CALM      30.16S
MEDFORD        FAIR      62  59  89 SE5       30.15S
MERRILL        FAIR      57  57 100 CALM      30.15F
$$

WIZ029-030-035-036-043>047-240700-
CENTRAL WISCONSIN

CITY           SKY/WX    TMP DP  RH WIND       PRES   REMARKS
WAUSAU         FAIR      63  60  90 SE5       30.14R
6HR MIN TEMP:  62; 6HR MAX TEMP:  76;

MOSINEE        FAIR      61  59  94 S5        30.16S
MARSHFIELD     FAIR      63  61  93 SE3       30.14S
6HR MIN TEMP:  63; 6HR MAX TEMP:  76;

STEVENS POINT  FAIR      59  58  97 CALM      30.16F
WAUPACA        FAIR      63  59  89 CALM      30.16S
WAUTOMA        FAIR      61  60  97 CALM      30.16F
6HR MIN TEMP:  60; 6HR MAX TEMP:  79;

WISC RAPIDS    FAIR      63  60  90 S3        30.15F
6HR MIN TEMP:  62; 6HR MAX TEMP:  78;

CAMP DOUGLAS   NOT AVBL
$$

WIZ011>013-019>022-031-037>040-048>050-240700-
NORTHEAST WISCONSIN

CITY           SKY/WX    TMP DP  RH WIND       PRES   REMARKS
ANTIGO         FAIR      59  56  88 CALM      30.17F
SHAWANO        FAIR      65  58  77 CALM      30.15S
OCONTO         FAIR      60  56  87 CALM      30.14F
STURGEON BAY   FAIR      64  46  52 S8        30.16S
6HR MIN TEMP:  61; 6HR MAX TEMP:  69;

GREEN BAY      FAIR      59  52  77 S3        30.16S
6HR MIN TEMP:  59; 6HR MAX TEMP:  77;

MANITOWOC      FAIR      63  48  58 SW5       30.17S
6HR MIN TEMP:  57; 6HR MAX TEMP:  67;

APPLETON       FAIR      63  52  67 SE5       30.16R
CLINTONVILLE   FAIR      64  56  75 CALM      30.15F
OSHKOSH        FAIR      65  57  75 S8        30.16S
6HR MIN TEMP:  62; 6HR MAX TEMP:  74;

$$

WIZ032>034-041-042-053>061-240700-
SOUTHWEST WISCONSIN

CITY           SKY/WX    TMP DP  RH WIND       PRES   REMARKS
LA CROSSE      FAIR      67  62  84 SE6       30.11S
6HR MIN TEMP:  67; 6HR MAX TEMP:  81;

SPARTA         FAIR      58  57  99 CALM      30.14F
VIROQUA        FAIR      67  62  83 SE9       30.15F
BOSCOBEL       FAIR      61  60  97 CALM      30.14F FOG
6HR MIN TEMP:  61; 6HR MAX TEMP:  81;

PRAIRIE DU CHI FAIR      65  61  86 CALM      30.12F
PLATTEVILLE    FAIR      67  61  82 SE7       30.16S
$$

WIZ056-057-062-063-064-067-068-240700-
SOUTH CENTRAL WISCONSIN

CITY           SKY/WX    TMP DP  RH WIND       PRES   REMARKS
REEDSBURG      FAIR      63  63 100 CALM      30.15F
BARABOO/DELLS  FAIR      62  58  87 S5        30.16S
LONE ROCK      NOT AVBL
MINERAL POINT  FAIR      66  61  82 E5        30.16F
MADISON        FAIR      67  59  75 S6        30.15F
6HR MIN TEMP:  64; 6HR MAX TEMP:  77;

MIDDLETON      FAIR      60  60 100 CALM      30.17S
WATERTOWN      FAIR      61  56  85 CALM      30.17F
MONROE         FAIR      64  55  72 SE6       30.16F
JANESVILLE     FAIR      63  52  67 CALM      30.17F
$$

WIZ051-052-058>065-066-070>072-240700-
SOUTHEAST WISCONSIN

CITY           SKY/WX    TMP DP  RH WIND       PRES   REMARKS
MILWAUKEE      FAIR      61  49  64 S3        30.18F
6HR MIN TEMP:  60; 6HR MAX TEMP:  70;

WAUKESHA       FAIR      59  46  63 CALM      30.20S
MILWAUKEE/TIMM FAIR      59  45  58 CALM      30.20S
RACINE         FAIR      55  53  93 CALM      30.20F
6HR MIN TEMP:  53; 6HR MAX TEMP:  68;

BURLINGTON     FAIR      56  53  92 CALM      30.19S
KENOSHA        FAIR      56  52  86 S5        30.18F
6HR MIN TEMP:  53; 6HR MAX TEMP:  70;

FOND DU LAC    FAIR      62  55  77 S6        30.16F
6HR MIN TEMP:  62; 6HR MAX TEMP:  78;

SHEBOYGAN      FAIR      58  50  75 CALM      30.17F
6HR MIN TEMP:  54; 6HR MAX TEMP:  69;

WEST BEND      FAIR      57  50  77 CALM      30.19S
JUNEAU         FAIR      62  56  81 CALM      30.18F
$$

LSZ147-162-240700-
LAKE SUPERIOR

STATION/POSITION TIME  TEMP    WIND        PRES    WAVE
                       AIR SEA DIR/SP/G            HT/PER
                 (UTC) (F)     (DEG/KT/KT) (MB)    (FT/S)
W MID LAKE BUOY  0450   39 36  350/  6/  8 1019.4S   0
DEVILS ISLAND    0500   44      40/  5/  6 1019.7F
SAXON HARBOR     0530   57      CALM  /  1 1018.3F
$$

LMZ867-665-643>646-240700-
LAKE MICHIGAN

STATION/POSITION TIME  TEMP    WIND        PRES    WAVE
                       AIR SEA DIR/SP/G            HT/PER
                 (UTC) (F)     (DEG/KT/KT) (MB)    (FT/S)
N MID LAKE BUOY  0540   42 37  180/  8/ 10 1021.1R
NORTHPORT PIER   0540   51     130/  2/  2 1021.0R
KEWAUNEE LAKESHO 0524   66     230/  7/ 12 1020.5
SHEBOYGAN LAKESH 0500   62     200/  7/  7 1021.8S
PORT WASHINGTON  0540   55     250/  1/  2 1022.7F
ATWATER BUOY     0507   53 49  140/  2/  2 1022.2    1
MILWAUKEE LAKESH 0530   63     200/  4/  4   N/A
S MID LAKE BUOY  0450   51 39  140/  6/  6 1022.9R   0
KENOSHA   LAKESH 0500   57                 1022.4
$$

TC  - TEMPERATURE IN CELSIUS
VSB - VISIBILITY IN STATUTE MILES
WCI - WIND CHILL INDEX
HX  - HEAT INDEX





USA.gov is the U.S. government's official web portal to all federal, state and local government web resources and services.